Home > Weather > Aylesbury > Past weeks

Flag for United Kingdom Past Weather in Aylesbury, England, United Kingdom — Yesterday and Last 2 Weeks

Now
44 °F

Quite cool.


Feels Like: 40 °F
Forecast: 39 / 63 °F
Wind: 6 mph from Northeast

Location: High Wicombe Hqstc

Current Time: May 25, 2016 at 4:30:04 AM

Latest Report: May 25, 2016 at 3:00 AM


Visibility: 12 mi

Pressure: 30.12 "Hg

Humidity: 90%

Dew Point: 41 °F

Location of AylesburyLocation

Past Weather in Aylesbury — Graph

°F

Aylesbury Temperature Yesterday

Maximum temperature yesterday: 57 °F (at 3:00 PM)
Minimum temperature yesterday: 43 °F (at 5:00 AM)
Average temperature yesterday: 51 °F

High & Low Weather Summary for the Past Weeks

 TemperatureHumidityPressure
High70 °F (May 12, 3:00 PM)100% (May 11, 8:00 AM)30.21 "Hg (May 11, 8:00 AM)
Low40 °F (May 14, 6:00 AM)48% (May 14, 7:00 PM)29.59 "Hg (May 12, 4:00 PM)
Average53 °F82%29.90 "Hg
* Reported May 10 3:00 AM — May 25 3:00 AM, Aylesbury, Weather by CustomWeather, © 2016

Note: Actual official high and low records may vary slightly from our data, if they occured in-between our weather recording intervals... More about our weather records

Advertising

Aylesbury Weather History for the Previous 24 Hours

Scroll right to see more
 ConditionsComfort  
Time TempWeatherWind HumidityBarometerVisibility
3:00 AM
Wed, May 25
44 °FQuite cool.6 mph90%30.12 "Hg12 mi
2:00 AM42 °FQuite cool.3 mph91%30.13 "Hg9 mi
1:00 AM43 °FQuite cool.5 mph92%30.14 "Hg7 mi
12:00 AM44 °FQuite cool.5 mph86%30.14 "Hg13 mi
11:00 PM
Tue, May 24
45 °FQuite cool.6 mph82%30.14 "Hg19 mi
10:00 PM46 °FCool.8 mph79%30.15 "Hg16 mi
9:00 PM50 °FCool.8 mph71%30.13 "Hg28 mi
8:00 PM52 °FCool.12 mph62%30.12 "Hg31 mi
7:00 PM54 °FCool.9 mph64%30.13 "Hg19 mi
6:00 PM56 °FRefreshingly cool.9 mph59%30.13 "Hg22 mi
5:00 PM56 °FRefreshingly cool.10 mph59%30.13 "Hg22 mi
4:00 PM56 °FCool.13 mph63%30.14 "Hg25 mi
3:00 PM57 °FRefreshingly cool.12 mph59%30.15 "Hg19 mi
2:00 PM56 °FRefreshingly cool.10 mph59%30.16 "Hg22 mi
1:00 PM56 °FCool.8 mph62%30.17 "Hg22 mi
12:00 PM55 °FCool.12 mph56%30.18 "Hg25 mi
11:00 AM57 °FCool.9 mph63%30.18 "Hg16 mi
10:00 AM56 °FCool.8 mph63%30.19 "Hg14 mi
9:00 AM53 °FCool.7 mph62%30.20 "Hg17 mi
8:00 AM50 °FCool.6 mph74%30.20 "Hg17 mi
7:00 AM48 °FCool.3 mph89%30.20 "Hg11 mi
6:00 AM44 °FFog.1 mph99%30.21 "Hg5 mi
5:00 AM43 °FFog.2 mph97%30.21 "Hg6 mi
4:00 AM44 °FQuite cool.6 mph96%30.20 "Hg7 mi
Weather by CustomWeather, © 2016

See weather overviewHow to use our weather pages